| time (UTC) | temp C | wind direction | speed KPH | gust KPH | rain 1hr cm | rain 24hr cm | rain mn cm | humidity % | barometer mb |
| 20260510005026 | 8 | 0.0 | 0.0 | 0.00 | 0.00 | 0.00 | 82 | 1012.6 | |
| 20260510004030 | 8 | 0.0 | 0.0 | 0.00 | 0.00 | 0.00 | 82 | 1012.6 | |
| 20260510003035 | 8 | 0.0 | 0.0 | 0.00 | 0.00 | 0.00 | 82 | 1012.5 | |
| 20260510002019 | 8 | 0.0 | 0.0 | 0.00 | 0.00 | 0.00 | 82 | 1012.4 | |
| 20260510001021 | 8 | 0.0 | 0.0 | 0.00 | 0.00 | 0.00 | 82 | 1012.4 | |
| 20260510000039 | 8 | 0.0 | 0.0 | 0.00 | 0.00 | 0.00 | 82 | 1012.5 | |
| 20260509235016 | 8 | 0.0 | 0.0 | 0.00 | 0.00 | 0.00 | 82 | 1012.4 | |
| 20260509234052 | 8 | 0.0 | 0.0 | 0.00 | 0.00 | 0.00 | 81 | 1012.3 | |
| 20260509233017 | 8 | 0.0 | 0.0 | 0.00 | 0.00 | 0.00 | 81 | 1012.2 | |
| 20260509232020 | 8 | 0.0 | 0.0 | 0.00 | 0.00 | 0.00 | 81 | 1012.1 | |
| 20260509231023 | 8 | 0.0 | 0.0 | 0.00 | 0.00 | 0.00 | 81 | 1011.9 | |
| 20260509230027 | 8 | 0.0 | 0.0 | 0.00 | 0.00 | 0.00 | 81 | 1012.1 | |
| 20260509225030 | 8 | 0.0 | 0.0 | 0.00 | 0.00 | 0.00 | 81 | 1012.3 | |
| 20260509224015 | 8 | 0.0 | 0.0 | 0.00 | 0.00 | 0.00 | 81 | 1012.4 | |
| 20260509223018 | 8 | 0.0 | 0.0 | 0.00 | 0.00 | 0.00 | 80 | 1012.4 | |
| 20260509222022 | 8 | 0.0 | 0.0 | 0.00 | 0.00 | 0.00 | 80 | 1012.6 | |
| 20260509221025 | 8 | 0.0 | 0.0 | 0.00 | 0.00 | 0.00 | 80 | 1012.6 | |
| 20260509220028 | 8 | 0.0 | 0.0 | 0.00 | 0.00 | 0.00 | 80 | 1012.5 | |
| 20260509215032 | 8 | 0.0 | 0.0 | 0.00 | 0.00 | 0.00 | 80 | 1012.6 | |
| 20260509214057 | 8 | 0.0 | 0.0 | 0.00 | 0.00 | 0.00 | 80 | 1012.7 | |
| 20260509213020 | 8 | 0.0 | 0.0 | 0.00 | 0.00 | 0.00 | 80 | 1012.8 | |
| 20260509212023 | 8 | 0.0 | 0.0 | 0.00 | 0.00 | 0.00 | 80 | 1012.6 | |
| 20260509211027 | 8 | 0.0 | 0.0 | 0.00 | 0.00 | 0.00 | 80 | 1012.6 | |
| 20260509210030 | 8 | 0.0 | 0.0 | 0.00 | 0.00 | 0.00 | 80 | 1012.6 | |
| 20260509205035 | 9 | 0.0 | 0.0 | 0.00 | 0.00 | 0.00 | 80 | 1012.8 | |
| 20260509204018 | 9 | 0.0 | 0.0 | 0.00 | 0.00 | 0.00 | 80 | 1012.9 | |
| 20260509203042 | 9 | 0.0 | 0.0 | 0.00 | 0.00 | 0.00 | 80 | 1013.0 | |
| 20260509202019 | 9 | 0.0 | 0.0 | 0.00 | 0.00 | 0.00 | 80 | 1013.2 | |
| 20260509201016 | 10 | 0.0 | 0.0 | 0.00 | 0.00 | 0.00 | 80 | 1013.0 | |
| 20260509200032 | 10 | 0.0 | 0.0 | 0.00 | 0.00 | 0.00 | 80 | 1012.5 | |
| 20260509195037 | 10 | 0.0 | 0.0 | 0.00 | 0.00 | 0.00 | 81 | 1012.2 | |
| 20260509194040 | 9 | 0.0 | 0.0 | 0.00 | 0.00 | 0.00 | 82 | 1012.4 | |
| 20260509193043 | 9 | 0.0 | 0.0 | 0.00 | 0.00 | 0.00 | 82 | 1012.7 | |
| 20260509192047 | 9 | 0.0 | 0.0 | 0.00 | 0.00 | 0.00 | 82 | 1012.5 | |
| 20260509191030 | 8 | 0.0 | 0.0 | 0.00 | 0.00 | 0.00 | 82 | 1012.8 | |
| 20260509190015 | 9 | 0.0 | 0.0 | 0.00 | 0.00 | 0.00 | 82 | 1013.0 | |
| 20260509185018 | 8 | 0.0 | 0.0 | 0.00 | 0.00 | 0.00 | 80 | 1013.3 | |
| 20260509184021 | 9 | 0.0 | 0.0 | 0.00 | 0.00 | 0.00 | 77 | 1013.4 | |
| 20260509183025 | 9 | 0.0 | 0.0 | 0.00 | 0.00 | 0.00 | 77 | 1013.4 | |
| 20260509182028 | 9 | 0.0 | 0.0 | 0.00 | 0.00 | 0.00 | 76 | 1013.6 | |
| 20260509181031 | 9 | 0.0 | 0.0 | 0.00 | 0.00 | 0.00 | 76 | 1013.7 | |
| 20260509180017 | 9 | 0.0 | 0.0 | 0.00 | 0.00 | 0.00 | 76 | 1013.7 | |
| 20260509175020 | 9 | 0.0 | 0.0 | 0.00 | 0.00 | 0.00 | 76 | 1013.7 | |
| 20260509174023 | 9 | 0.0 | 0.0 | 0.00 | 0.00 | 0.00 | 76 | 1013.9 | |
| 20260509173027 | 9 | 0.0 | 0.0 | 0.00 | 0.00 | 0.00 | 76 | 1014.1 | |
| 20260509172030 | 9 | 0.0 | 0.0 | 0.00 | 0.00 | 0.00 | 76 | 1014.0 | |
| 20260509171035 | 9 | 0.0 | 0.0 | 0.00 | 0.00 | 0.00 | 76 | 1014.2 | |
| 20260509170039 | 9 | 0.0 | 0.0 | 0.00 | 0.00 | 0.00 | 76 | 1014.1 | |
| 20260509165022 | 9 | 0.0 | 0.0 | 0.00 | 0.00 | 0.00 | 76 | 1014.0 | |
| 20260509164039 | 9 | 0.0 | 0.0 | 0.00 | 0.00 | 0.00 | 76 | 1013.9 | |
| 20260509163036 | 9 | 0.0 | 0.0 | 0.00 | 0.00 | 0.00 | 75 | 1013.9 | |
| 20260509162032 | 9 | 0.0 | 0.0 | 0.00 | 0.00 | 0.00 | 75 | 1014.1 | |
| 20260509161017 | 9 | 0.0 | 0.0 | 0.00 | 0.00 | 0.00 | 75 | 1014.3 | |
| 20260509160020 | 9 | 0.0 | 0.0 | 0.00 | 0.00 | 0.00 | 75 | 1014.7 | |
| 20260509155023 | 9 | 0.0 | 0.0 | 0.00 | 0.00 | 0.00 | 75 | 1014.7 | |
| 20260509154027 | 9 | 0.0 | 0.0 | 0.00 | 0.00 | 0.00 | 75 | 1014.7 | |
| 20260509153030 | 9 | 0.0 | 0.0 | 0.00 | 0.00 | 0.00 | 74 | 1014.7 | |
| 20260509152015 | 9 | 0.0 | 0.0 | 0.00 | 0.00 | 0.00 | 74 | 1014.8 | |
| 20260509151039 | 10 | 0.0 | 0.0 | 0.00 | 0.00 | 0.00 | 74 | 1015.0 | |
| 20260509150022 | 10 | 0.0 | 0.0 | 0.00 | 0.00 | 0.00 | 74 | 1015.0 | |
| 20260509145105 | 10 | 0.0 | 0.0 | 0.00 | 0.00 | 0.00 | 74 | 1015.1 | |
| 20260509144028 | 10 | 0.0 | 0.0 | 0.00 | 0.00 | 0.00 | 73 | 1015.0 | |
| 20260509143032 | 10 | 0.0 | 0.0 | 0.00 | 0.00 | 0.00 | 73 | 1015.0 | |
| 20260509142017 | 10 | 0.0 | 0.0 | 0.00 | 0.00 | 0.00 | 71 | 1014.9 | |
| 20260509141020 | 10 | 0.0 | 0.0 | 0.00 | 0.00 | 0.00 | 69 | 1014.8 | |
| 20260509140043 | 10 | 0.0 | 0.0 | 0.00 | 0.00 | 0.00 | 66 | 1014.5 | |
| 20260509135027 | 10 | 0.0 | 0.0 | 0.00 | 0.00 | 0.00 | 66 | 1014.6 | |
| 20260509134030 | 11 | 0.0 | 0.0 | 0.00 | 0.00 | 0.00 | 63 | 1014.6 | |
| 20260509133015 | 11 | 0.0 | 0.0 | 0.00 | 0.00 | 0.00 | 62 | 1014.5 | |
| 20260509132019 | 11 | 0.0 | 0.0 | 0.00 | 0.00 | 0.00 | 58 | 1014.6 | |
| 20260509131022 | 11 | 0.0 | 0.0 | 0.00 | 0.00 | 0.00 | 54 | 1014.6 | |
| 20260509130019 | 11 | 0.0 | 0.0 | 0.00 | 0.00 | 0.00 | 59 | 1014.7 | |
| 20260509125017 | 10 | 0.0 | 0.0 | 0.00 | 0.00 | 0.00 | 63 | 1014.8 | |
| 20260509124032 | 10 | 0.0 | 0.0 | 0.00 | 0.00 | 0.00 | 63 | 1014.8 | |
| 20260509123017 | 10 | 0.0 | 0.0 | 0.00 | 0.00 | 0.00 | 64 | 1014.8 | |
| 20260509122020 | 9 | 0.0 | 0.0 | 0.00 | 0.00 | 0.00 | 66 | 1014.6 | |
| 20260509121023 | 8 | 0.0 | 0.0 | 0.00 | 0.00 | 0.00 | 66 | 1014.7 | |
| 20260509120027 | 8 | 0.0 | 0.0 | 0.00 | 0.00 | 0.00 | 68 | 1014.7 | |
| 20260509115030 | 7 | 0.0 | 0.0 | 0.00 | 0.00 | 0.00 | 69 | 1014.8 | |
| 20260509114015 | 7 | 0.0 | 0.0 | 0.00 | 0.00 | 0.00 | 70 | 1014.8 | |
| 20260509113059 | 7 | 0.0 | 0.0 | 0.00 | 0.00 | 0.00 | 72 | 1014.8 | |
| 20260509112022 | 6 | 0.0 | 0.0 | 0.00 | 0.00 | 0.00 | 73 | 1014.9 | |
| 20260509111025 | 5 | 0.0 | 0.0 | 0.00 | 0.00 | 0.00 | 73 | 1014.8 | |
| 20260509110029 | 5 | 0.0 | 0.0 | 0.00 | 0.00 | 0.00 | 74 | 1014.8 | |
| 20260509105112 | 4 | 0.0 | 0.0 | 0.00 | 0.00 | 0.00 | 75 | 1014.8 | |
| 20260509104037 | 3 | 0.0 | 0.0 | 0.00 | 0.00 | 0.00 | 75 | 1014.8 | |
| 20260509103021 | 3 | 0.0 | 0.0 | 0.00 | 0.00 | 0.00 | 75 | 1014.7 | |
| 20260509102023 | 3 | 0.0 | 0.0 | 0.00 | 0.00 | 0.00 | 76 | 1014.5 | |
| 20260509101027 | 2 | 0.0 | 0.0 | 0.00 | 0.00 | 0.00 | 76 | 1014.4 | |
| 20260509100030 | 2 | 0.0 | 0.0 | 0.00 | 0.00 | 0.00 | 76 | 1014.2 | |
| 20260509095035 | 1 | 0.0 | 0.0 | 0.00 | 0.00 | 0.00 | 76 | 1014.1 | |
| 20260509094039 | 1 | 0.0 | 0.0 | 0.00 | 0.00 | 0.00 | 76 | 1014.1 | |
| 20260509093022 | 1 | 0.0 | 0.0 | 0.00 | 0.00 | 0.00 | 76 | 1014.2 | |
| 20260509092019 | 1 | 0.0 | 0.0 | 0.00 | 0.00 | 0.00 | 76 | 1014.1 | |
| 20260509091016 | 1 | 0.0 | 0.0 | 0.00 | 0.00 | 0.00 | 76 | 1015.4 | |
| 20260509090032 | 1 | 0.0 | 0.0 | 0.00 | 0.00 | 0.00 | 76 | 1013.9 | |
| 20260509085016 | 1 | 0.0 | 0.0 | 0.00 | 0.00 | 0.00 | 75 | 1013.7 | |
| 20260509084020 | 1 | 0.0 | 0.0 | 0.00 | 0.00 | 0.00 | 75 | 1013.7 | |
| 20260509083023 | 1 | 0.0 | 0.0 | 0.00 | 0.00 | 0.00 | 75 | 1013.7 | |
| 20260509082027 | 1 | 0.0 | 0.0 | 0.00 | 0.00 | 0.00 | 75 | 1013.7 | |
| 20260509081030 | 2 | 0.0 | 0.0 | 0.00 | 0.00 | 0.00 | 75 | 1013.7 | |
| 20260509080015 | 1 | 0.0 | 0.0 | 0.00 | 0.00 | 0.00 | 74 | 1013.8 | |
| 20260509075039 | 2 | 0.0 | 0.0 | 0.00 | 0.00 | 0.00 | 74 | 1013.6 | |
| 20260509074022 | 2 | 0.0 | 0.0 | 0.00 | 0.00 | 0.00 | 74 | 1013.5 | |
| 20260509073045 | 2 | 0.0 | 0.0 | 0.00 | 0.00 | 0.00 | 74 | 1013.5 | |
| 20260509072049 | 2 | 0.0 | 0.0 | 0.00 | 0.00 | 0.00 | 73 | 1013.5 | |
| 20260509071032 | 2 | 0.0 | 0.0 | 0.00 | 0.00 | 0.00 | 73 | 1013.4 | |
| 20260509070017 | 2 | 0.0 | 0.0 | 0.00 | 0.00 | 0.00 | 72 | 1013.6 | |
| 20260509065020 | 2 | 0.0 | 0.0 | 0.00 | 0.00 | 0.00 | 72 | 1013.7 | |
| 20260509064023 | 2 | 0.0 | 0.0 | 0.00 | 0.00 | 0.00 | 72 | 1013.7 | |
| 20260509063027 | 2 | 0.0 | 0.0 | 0.00 | 0.00 | 0.00 | 71 | 1013.7 | |
| 20260509062030 | 2 | 0.0 | 0.0 | 0.00 | 0.00 | 0.00 | 70 | 1013.7 | |
| 20260509061015 | 3 | 0.0 | 0.0 | 0.00 | 0.00 | 0.00 | 71 | 1013.6 | |
| 20260509060018 | 3 | 0.0 | 0.0 | 0.00 | 0.00 | 0.00 | 70 | 1013.6 | |
| 20260509055022 | 3 | 0.0 | 0.0 | 0.00 | 0.00 | 0.00 | 70 | 1013.5 | |
| 20260509054019 | 3 | 0.0 | 0.0 | 0.00 | 0.00 | 0.00 | 69 | 1013.5 | |
| 20260509053017 | 3 | 0.0 | 0.0 | 0.00 | 0.00 | 0.00 | 69 | 1013.4 | |
| 20260509052032 | 3 | 0.0 | 0.0 | 0.00 | 0.00 | 0.00 | 69 | 1013.4 | |
| 20260509051017 | 3 | 0.0 | 0.0 | 0.00 | 0.00 | 0.00 | 69 | 1013.4 | |
| 20260509050020 | 3 | 0.0 | 0.0 | 0.00 | 0.00 | 0.00 | 68 | 1013.4 | |
| 20260509045024 | 3 | 0.0 | 0.0 | 0.00 | 0.00 | 0.00 | 68 | 1013.3 | |
| 20260509044027 | 4 | 0.0 | 0.0 | 0.00 | 0.00 | 0.00 | 66 | 1013.3 | |
| 20260509043030 | 4 | 0.0 | 0.0 | 0.00 | 0.00 | 0.00 | 65 | 1013.2 | |
| 20260509042136 | 5 | 0.0 | 0.0 | 0.00 | 0.00 | 0.00 | 65 | 1013.2 | |
| 20260509041019 | 5 | 0.0 | 0.0 | 0.00 | 0.00 | 0.00 | 64 | 1013.3 | |
| 20260509040022 | 5 | 0.0 | 0.0 | 0.00 | 0.00 | 0.00 | 62 | 1013.1 | |
| 20260509035025 | 5 | 0.0 | 0.0 | 0.00 | 0.00 | 0.00 | 61 | 1013.0 | |
| 20260509034028 | 6 | 0.0 | 0.0 | 0.00 | 0.00 | 0.00 | 61 | 1013.0 | |
| 20260509033032 | 6 | 0.0 | 0.0 | 0.00 | 0.00 | 0.00 | 59 | 1013.0 | |
| 20260509032017 | 6 | 0.0 | 0.0 | 0.00 | 0.00 | 0.00 | 59 | 1012.8 | |
| 20260509031020 | 6 | 0.0 | 0.0 | 0.00 | 0.00 | 0.00 | 58 | 1012.7 | |
| 20260509030023 | 7 | 0.0 | 0.0 | 0.00 | 0.00 | 0.00 | 57 | 1012.6 | |
| 20260509025026 | 7 | 0.0 | 0.0 | 0.00 | 0.00 | 0.00 | 56 | 1012.6 | |
| 20260509024030 | 7 | 0.0 | 0.0 | 0.00 | 0.00 | 0.00 | 55 | 1012.5 | |
| 20260509023015 | 8 | 0.0 | 0.0 | 0.00 | 0.00 | 0.00 | 53 | 1012.4 | |
| 20260509022018 | 8 | 0.0 | 0.0 | 0.00 | 0.00 | 0.00 | 52 | 1012.5 | |
| 20260509021022 | 8 | 0.0 | 0.0 | 0.00 | 0.00 | 0.00 | 49 | 1012.3 | |
| 20260509020019 | 9 | 0.0 | 0.0 | 0.00 | 0.00 | 0.00 | 48 | 1012.0 | |
| 20260509015017 | 10 | 0.0 | 0.0 | 0.00 | 0.00 | 0.00 | 47 | 1011.9 | |
| 20260509014032 | 10 | 0.0 | 0.0 | 0.00 | 0.00 | 0.00 | 44 | 1011.7 | |
| 20260509013057 | 10 | 0.0 | 0.0 | 0.00 | 0.00 | 0.00 | 43 | 1011.6 | |
| 20260509012020 | 10 | 248 | 1.6 | 4.8 | 0.00 | 0.00 | 0.00 | 43 | 1011.4 |
| 20260509011023 | 10 | 265 | 1.6 | 11.3 | 0.00 | 0.00 | 0.00 | 42 | 1011.0 |
| 20260509010027 | 11 | 337 | 0.0 | 3.2 | 0.00 | 0.00 | 0.00 | 42 | 1010.8 |